Location: Stavanger
(58.9670°N, 5.7500°E)
Time: 05:49:31
(UTC+02:00)

ISS - Visible Passes

Search period start: 26 September 2017 00:00
Search period end: 06 October 2017 00:00
Orbit: 401 x 407 km, 51.6° (Epoch: 26 September)

Date Brightness Start Highest point End Pass type
(mag) Time Alt. Az. Time Alt. Az. Time Alt. Az.
29 Sep -1.8 21:03:32 10° SSW 21:05:12 15° SSE 21:05:12 15° SSE visible
30 Sep -1.6 20:12:02 10° S 20:13:29 12° SSE 20:14:55 10° SE visible
30 Sep -1.5 21:46:33 10° SW 21:47:36 16° SSW 21:47:36 16° SSW visible
01 Oct -2.2 20:54:28 10° SW 20:56:56 20° SSE 20:57:16 19° SSE visible
02 Oct -1.8 20:02:33 10° SSW 20:04:45 17° SSE 20:06:53 10° ESE visible
02 Oct -1.8 21:37:51 10° SW 21:39:31 20° SSW 21:39:31 20° SSW visible
03 Oct -2.2 20:45:38 10° SW 20:48:16 22° S 20:49:05 20° SSE visible
03 Oct -0.8 22:21:38 10° WSW 22:21:43 10° WSW 22:21:43 10° WSW visible
04 Oct -2.0 19:53:29 10° SW 19:56:01 20° SSE 19:58:32 10° ESE visible
04 Oct -1.9 21:29:13 10° WSW 21:31:15 20° SSW 21:31:15 20° SSW visible
05 Oct -2.1 20:36:53 10° WSW 20:39:33 23° S 20:40:45 18° SSE visible
05 Oct -0.8 22:13:19 10° WSW 22:13:23 10° WSW 22:13:23 10° WSW visible
